CZ-6A DEB

Satellite information

Favourite Embed

Satellite Type and Status

DEBRISIN ORBIT

Key statistics

Satellite CZ-6A DEB at a glance.

Uptime

495

Days in orbit

Revolutions

≈ 14.6

Per day

Orbit

LEO

Low Earth Orbit

Inclination

89.1

Latest

Satellite identification and parameters

Extended collection of information and parameters for CZ-6A DEB.

Object identification

Identified? True

Debris? True

Object name: CZ-6A DEB

International designator: 2024-140VN

Object number (NORAD): 61349

Object ID (CCSDS): 61349

Country: PEOPLES REPUBLIC OF CHINA (PRC)

Current information (Y/N): Y

RCS size: SMALL

Orbital parameters

Period: 98.418 minutes

Inclination: 89.0679 deg

SMA: 7061.186 km

Apoapsis: 780.513 km

Periapsis: 585.588 km

RAAN: 296.1758 deg

Eccentricy: 0.01380251

Argument of periapsis: 170.6835 deg

Mean anomaly: 189.6991 deg

Mean motion: 14.63141491 rev/day

Mean motion (dot): 0.00006214 rev/day2

B* drag term: 0.0010496295 1/REarth

Two-line elements (TLE)

Creation date: Dec. 11, 2025, 7:14 p.m.

Reference frame: TEME

Reference center: EARTH

Epoch: Dec. 11, 2025, 2:36 p.m. UTC

TLE line 0: 0 CZ-6A DEB

TLE line 1: 1 61349U 24140VN 25345.60890693 .00006214 00000-0 10496-2 0 9999

TLE line 2: 2 61349 89.0679 296.1758 0138025 170.6835 189.6991 14.63141491 67809

Live tracking on map

Real-time ground track for satellite CZ-6A DEB.

In-orbit conjunctions

A list of the most updated potential collisions computed for object CZ-6A DEB.

Target Orbit TCA Probability of collision Miss distance Type
NOAA 17 DEB SSO 2025-10-05 07:27:49 0.0001437323 81.0 (m) DEBRIS
DELTA 1 DEB LEO 2025-01-06 06:14:49 0.0001187114 612.0 (m) DEBRIS
COSMOS 252 DEB * LEO 2024-11-14 01:05:05 0.0001354326 943.0 (m) DEBRIS
FENGYUN 1C DEB SSO 2024-11-12 10:16:43 0.0003347169 455.0 (m) DEBRIS
NOAA 16 DEB SSO 2024-11-08 13:27:20 0.0002288131 923.0 (m) DEBRIS

Associated space launch

18 Low Earth Orbit communication satellites with Ku, Q and V band payloads for the G60 constellation operated by Shanghai Spacecom Satellite Technology (SSST) with funding backed by the Shanghai local government. Initial constellation will consist of 1296 satellites by 2027 with long term plans to expand it to 12000 satellites.

CZ-6A DEB was lifted into orbit during the mission ‘Long March 6A | G60 Polar Group 01’, on board a Long March 6A space rocket.

The launch took place on Aug. 6, 2024, 6:42 a.m. from Launch Complex 9A.

For more information about the launch, click the button.

Launch to space Long March 6A | G60 Polar Group 01
Long March 6A | G60 Polar Group 01

Agency: N/A

Status: Launch Successful

Launch date: Aug. 6, 2024, 6:42 a.m. UTC

Rocket: Long March 6A

Launch pad: Launch Complex 9A

Location: Taiyuan Satellite Launch Center, People's Republic of China

...

Latest news about this satellite

News about space launch
Brightness of first Chinese broadband constellation satellites alarms astronomers

The first satellites of a Chinese broadband constellation are significantly brighter than those of Western systems, posing a new challenge for astronomers.

News about space launch
Chinese rocket stage breaks up into cloud of more than 700 pieces of space debris

HELSINKI — A Chinese Long March 6A rocket’s upper stage has fragmented into a cloud of over 700 pieces of space debris, adding to concerns about long-term orbital safety. China […]

News about space launch
China's Thousand Sails Megaconstellation Kicks Off with Dangerous Debris Field

China's Thousand Sails Megaconstellation Kicks Off with Dangerous Debris Field


Newsletter sign-up

Weekly statistics, charts and insights to help you stay on top of the space industry.